Location: White Rock
(35.8256°N, 106.1876°W)
Time: 13:31:43
(UTC-06:00)

Tiangong - Visible Passes

Search period start: 19 October 2021 00:00
Search period end: 29 October 2021 00:00
Orbit: 382 x 385 km, 41.5° (Epoch: 19 October)

Date Brightness Start Highest point End Pass type
(mag) Time Alt. Az. Time Alt. Az. Time Alt. Az.
19 Oct 2.8 20:10:28 10° WNW 20:12:43 30° NW 20:12:43 30° NW visible
20 Oct 1.8 19:10:06 10° W 19:13:09 45° NNW 19:15:28 16° NE visible
20 Oct 4.7 20:47:35 10° WNW 20:47:38 10° WNW 20:47:38 10° WNW visible
21 Oct 2.4 19:47:16 10° WNW 19:50:05 28° N 19:50:21 28° N visible
22 Oct 2.3 18:46:53 10° WNW 18:49:48 33° N 18:52:43 10° ENE visible
22 Oct 3.8 20:24:14 10° WNW 20:25:12 17° NW 20:25:12 17° NW visible
23 Oct 2.5 19:23:59 10° WNW 19:26:45 27° N 19:27:53 22° NE visible
24 Oct 2.7 20:00:44 10° WNW 20:02:44 28° NNW 20:02:44 28° NNW visible
25 Oct 2.3 19:00:34 10° WNW 19:03:24 29° N 19:05:27 15° ENE visible
25 Oct 4.5 20:37:18 10° WNW 20:37:37 12° WNW 20:37:37 12° WNW visible
26 Oct 1.3 19:37:10 10° WNW 19:40:15 49° NNE 19:40:23 49° NNE visible
27 Oct 2.0 18:37:01 10° WNW 18:39:59 35° NNE 18:42:55 10° E visible
27 Oct 3.3 20:13:47 10° WNW 20:15:24 27° W 20:15:24 27° W visible
28 Oct 1.0 19:13:33 10° WNW 19:16:43 80° NNE 19:18:20 26° ESE visible
